Location: Unspecified
(0.0000°N, 0.0000°E)
Time: 17:49:02
(UTC+00:00)

OTV 5 (USA 277) - Pass Details

Date: 16 December 2018
Orbit: 340 x 348 km, 54.5° (Epoch: 10 December)

Event Time Altitude Azimuth Distance (km) Brightness Sun altitude
Rises 18:59:06 0° 194° (SSW) 2,145 ? -14.5°
Reaches altitude 10° 19:01:20 10° 179° (S) 1,302 ? -15.0°
Enters shadow 19:03:40 24° 126° (SE) 780 ? -15.6°
